| time (UTC) | temp F | wind direction | speed MPH | gust MPH | rain 1hr in | rain 24hr in | rain mn in | humidity % | barometer mb |
| 20260510174339 | 69 | 334 | 2.0 | 7.0 | 0.00 | 0.00 | 0.00 | 33 | 1022.5 |
| 20260510173351 | 68 | 148 | 2.0 | 8.0 | 0.00 | 0.00 | 0.00 | 31 | 1022.4 |
| 20260510172346 | 68 | 346 | 3.0 | 6.0 | 0.00 | 0.00 | 0.00 | 31 | 1022.5 |
| 20260510171400 | 68 | 233 | 2.0 | 6.0 | 0.00 | 0.00 | 0.00 | 30 | 1022.7 |
| 20260510170326 | 68 | 171 | 1.0 | 6.0 | 0.00 | 0.00 | 0.00 | 31 | 1022.8 |
| 20260510165340 | 67 | 172 | 2.0 | 5.0 | 0.00 | 0.00 | 0.00 | 30 | 1023.0 |
| 20260510164347 | 67 | 214 | 1.0 | 5.0 | 0.00 | 0.00 | 0.00 | 32 | 1023.0 |
| 20260510163328 | 66 | 171 | 2.0 | 7.0 | 0.00 | 0.00 | 0.00 | 32 | 1023.1 |
| 20260510162338 | 67 | 185 | 1.0 | 4.0 | 0.00 | 0.00 | 0.00 | 31 | 1023.1 |
| 20260510161325 | 66 | 91 | 1.0 | 4.0 | 0.00 | 0.00 | 0.00 | 32 | 1023.0 |
| 20260510160356 | 66 | 161 | 1.0 | 3.0 | 0.00 | 0.00 | 0.00 | 31 | 1023.0 |
| 20260510155327 | 65 | 151 | 0.0 | 3.0 | 0.00 | 0.00 | 0.00 | 32 | 1023.0 |
| 20260510154400 | 64 | 166 | 1.0 | 5.0 | 0.00 | 0.00 | 0.00 | 33 | 1023.0 |
| 20260510153332 | 64 | 156 | 1.0 | 3.0 | 0.00 | 0.00 | 0.00 | 34 | 1023.1 |
| 20260510152325 | 63 | 206 | 1.0 | 3.0 | 0.00 | 0.00 | 0.00 | 34 | 1023.1 |
| 20260510151347 | 62 | 152 | 1.0 | 3.0 | 0.00 | 0.00 | 0.00 | 35 | 1023.0 |
| 20260510150332 | 61 | 148 | 1.0 | 3.0 | 0.00 | 0.00 | 0.00 | 36 | 1023.1 |
| 20260510145341 | 60 | 235 | 1.0 | 3.0 | 0.00 | 0.00 | 0.00 | 38 | 1023.0 |
| 20260510144342 | 59 | 279 | 0.0 | 2.0 | 0.00 | 0.00 | 0.00 | 41 | 1023.1 |
| 20260510143328 | 58 | 178 | 0.0 | 1.0 | 0.00 | 0.00 | 0.00 | 42 | 1023.0 |
| 20260510142338 | 57 | 249 | 1.0 | 2.0 | 0.00 | 0.00 | 0.00 | 41 | 1022.9 |
| 20260510141340 | 56 | 184 | 0.0 | 3.0 | 0.00 | 0.00 | 0.00 | 45 | 1022.7 |
| 20260510140329 | 55 | 218 | 0.0 | 2.0 | 0.00 | 0.00 | 0.00 | 48 | 1022.6 |
| 20260510135339 | 54 | 214 | 0.0 | 3.0 | 0.00 | 0.00 | 0.00 | 50 | 1022.5 |
| 20260510134351 | 54 | 173 | 0.0 | 2.0 | 0.00 | 0.00 | 0.00 | 52 | 1022.6 |
| 20260510133332 | 52 | 166 | 0.0 | 2.0 | 0.00 | 0.00 | 0.00 | 54 | 1022.4 |
| 20260510132326 | 51 | 163 | 0.0 | 1.0 | 0.00 | 0.00 | 0.00 | 52 | 1022.4 |
| 20260510131401 | 50 | 6 | 0.0 | 0.0 | 0.00 | 0.00 | 0.00 | 58 | 1022.5 |
| 20260510130326 | 48 | 6 | 0.0 | 0.0 | 0.00 | 0.00 | 0.00 | 63 | 1022.3 |
| 20260510125336 | 47 | 6 | 0.0 | 0.0 | 0.00 | 0.00 | 0.00 | 66 | 1022.2 |
| 20260510124340 | 47 | 6 | 0.0 | 0.0 | 0.00 | 0.00 | 0.00 | 66 | 1022.0 |
| 20260510123408 | 46 | 6 | 0.0 | 0.0 | 0.00 | 0.00 | 0.00 | 66 | 1021.9 |
| 20260510122326 | 46 | 7 | 0.0 | 0.0 | 0.00 | 0.00 | 0.00 | 67 | 1021.9 |
| 20260510121333 | 46 | 6 | 0.0 | 0.0 | 0.00 | 0.00 | 0.00 | 67 | 1021.8 |
| 20260510120322 | 46 | 6 | 0.0 | 0.0 | 0.00 | 0.00 | 0.00 | 66 | 1021.7 |
| 20260510115331 | 45 | 6 | 0.0 | 1.0 | 0.00 | 0.00 | 0.00 | 67 | 1021.5 |
| 20260510114337 | 45 | 6 | 0.0 | 0.0 | 0.00 | 0.00 | 0.00 | 66 | 1021.5 |
| 20260510113349 | 45 | 6 | 0.0 | 0.0 | 0.00 | 0.00 | 0.00 | 66 | 1021.5 |
| 20260510112333 | 45 | 6 | 0.0 | 0.0 | 0.00 | 0.00 | 0.00 | 66 | 1021.4 |
| 20260510111337 | 45 | 6 | 0.0 | 0.0 | 0.00 | 0.00 | 0.00 | 65 | 1021.4 |
| 20260510110323 | 44 | 6 | 0.0 | 0.0 | 0.00 | 0.00 | 0.00 | 66 | 1021.3 |
| 20260510105331 | 44 | 6 | 0.0 | 0.0 | 0.00 | 0.00 | 0.00 | 66 | 1021.2 |
| 20260510104333 | 44 | 6 | 0.0 | 0.0 | 0.00 | 0.00 | 0.00 | 66 | 1021.1 |
| 20260510103324 | 44 | 6 | 0.0 | 0.0 | 0.00 | 0.00 | 0.00 | 65 | 1021.2 |
| 20260510102335 | 43 | 6 | 0.0 | 0.0 | 0.00 | 0.00 | 0.00 | 63 | 1021.0 |
| 20260510101351 | 43 | 6 | 0.0 | 0.0 | 0.00 | 0.00 | 0.00 | 62 | 1020.8 |
| 20260510100333 | 43 | 6 | 0.0 | 0.0 | 0.00 | 0.00 | 0.00 | 64 | 1020.7 |
| 20260510095327 | 43 | 6 | 0.0 | 0.0 | 0.00 | 0.00 | 0.00 | 65 | 1020.3 |
| 20260510094353 | 43 | 6 | 0.0 | 0.0 | 0.00 | 0.00 | 0.00 | 65 | 1020.2 |
| 20260510093322 | 43 | 7 | 0.0 | 0.0 | 0.00 | 0.00 | 0.00 | 64 | 1020.1 |
| 20260510092355 | 43 | 6 | 0.0 | 0.0 | 0.00 | 0.00 | 0.00 | 65 | 1020.0 |
| 20260510091341 | 43 | 6 | 0.0 | 0.0 | 0.00 | 0.00 | 0.00 | 63 | 1019.9 |
| 20260510090328 | 44 | 6 | 0.0 | 0.0 | 0.00 | 0.00 | 0.00 | 64 | 1019.6 |
| 20260510085338 | 44 | 6 | 0.0 | 0.0 | 0.00 | 0.00 | 0.00 | 62 | 1019.5 |
| 20260510084340 | 44 | 6 | 0.0 | 0.0 | 0.00 | 0.00 | 0.00 | 62 | 1019.5 |
| 20260510083330 | 45 | 6 | 0.0 | 0.0 | 0.00 | 0.00 | 0.00 | 61 | 1019.5 |
| 20260510082336 | 45 | 6 | 0.0 | 0.0 | 0.00 | 0.00 | 0.00 | 58 | 1019.5 |
| 20260510081341 | 46 | 6 | 0.0 | 0.0 | 0.00 | 0.00 | 0.00 | 58 | 1019.3 |
| 20260510080326 | 47 | 6 | 0.0 | 0.0 | 0.00 | 0.00 | 0.00 | 56 | 1019.3 |
| 20260510075334 | 47 | 6 | 0.0 | 0.0 | 0.00 | 0.00 | 0.00 | 55 | 1019.5 |
| 20260510074334 | 48 | 6 | 0.0 | 0.0 | 0.00 | 0.00 | 0.00 | 53 | 1019.1 |
| 20260510073324 | 49 | 6 | 0.0 | 0.0 | 0.00 | 0.00 | 0.00 | 51 | 1018.9 |
| 20260510072337 | 50 | 6 | 0.0 | 0.0 | 0.00 | 0.00 | 0.00 | 50 | 1018.9 |
| 20260510071342 | 51 | 6 | 0.0 | 0.0 | 0.00 | 0.00 | 0.00 | 50 | 1018.8 |
| 20260510070330 | 52 | 7 | 0.0 | 0.0 | 0.00 | 0.00 | 0.00 | 48 | 1018.8 |
| 20260510065339 | 52 | 7 | 0.0 | 0.0 | 0.00 | 0.00 | 0.00 | 47 | 1018.8 |
| 20260510064338 | 53 | 6 | 0.0 | 2.0 | 0.00 | 0.00 | 0.00 | 47 | 1018.6 |
| 20260510063406 | 54 | 5 | 0.0 | 0.0 | 0.00 | 0.00 | 0.00 | 45 | 1018.5 |
| 20260510062347 | 54 | 5 | 0.0 | 1.0 | 0.00 | 0.00 | 0.00 | 43 | 1018.5 |
| 20260510061335 | 55 | 10 | 1.0 | 2.0 | 0.00 | 0.00 | 0.00 | 42 | 1018.4 |
| 20260510060325 | 55 | 19 | 1.0 | 3.0 | 0.00 | 0.00 | 0.00 | 41 | 1018.4 |
| 20260510055338 | 55 | 10 | 1.0 | 3.0 | 0.00 | 0.00 | 0.00 | 41 | 1017.8 |
| 20260510054341 | 56 | 21 | 1.0 | 3.0 | 0.00 | 0.00 | 0.00 | 41 | 1017.5 |
| 20260510053349 | 56 | 14 | 1.0 | 4.0 | 0.00 | 0.00 | 0.00 | 40 | 1017.2 |
| 20260510052334 | 57 | 12 | 1.0 | 2.0 | 0.00 | 0.00 | 0.00 | 40 | 1017.1 |
| 20260510051337 | 57 | 17 | 0.0 | 3.0 | 0.00 | 0.00 | 0.00 | 39 | 1016.7 |
| 20260510050345 | 57 | 332 | 2.0 | 3.0 | 0.00 | 0.00 | 0.00 | 39 | 1016.7 |
| 20260510045336 | 58 | 17 | 1.0 | 3.0 | 0.00 | 0.00 | 0.00 | 38 | 1016.6 |
| 20260510044341 | 58 | 22 | 2.0 | 3.0 | 0.00 | 0.00 | 0.00 | 37 | 1016.5 |
| 20260510043411 | 59 | 17 | 2.0 | 3.0 | 0.00 | 0.00 | 0.00 | 37 | 1016.3 |
| 20260510042334 | 60 | 7 | 2.0 | 5.0 | 0.00 | 0.00 | 0.00 | 36 | 1016.1 |
| 20260510041335 | 60 | 1 | 2.0 | 6.0 | 0.00 | 0.00 | 0.00 | 36 | 1015.9 |
| 20260510040342 | 60 | 356 | 3.0 | 5.0 | 0.00 | 0.00 | 0.00 | 36 | 1015.7 |
| 20260510035329 | 61 | 38 | 2.0 | 5.0 | 0.00 | 0.00 | 0.00 | 36 | 1015.5 |
| 20260510034336 | 61 | 360 | 4.0 | 7.0 | 0.00 | 0.00 | 0.00 | 35 | 1015.3 |
| 20260510033328 | 62 | 16 | 1.0 | 10.0 | 0.00 | 0.00 | 0.00 | 36 | 1015.1 |
| 20260510032323 | 62 | 358 | 2.0 | 6.0 | 0.00 | 0.00 | 0.00 | 36 | 1014.9 |
| 20260510031325 | 62 | 16 | 2.0 | 7.0 | 0.00 | 0.00 | 0.00 | 36 | 1014.8 |
| 20260510030334 | 63 | 358 | 1.0 | 4.0 | 0.00 | 0.00 | 0.00 | 36 | 1014.6 |
| 20260510025326 | 63 | 15 | 2.0 | 3.0 | 0.00 | 0.00 | 0.00 | 36 | 1014.4 |
| 20260510024346 | 64 | 2 | 1.0 | 2.0 | 0.00 | 0.00 | 0.00 | 35 | 1014.1 |
| 20260510023333 | 64 | 356 | 1.0 | 3.0 | 0.00 | 0.00 | 0.00 | 35 | 1013.9 |
| 20260510022339 | 65 | 347 | 2.0 | 6.0 | 0.00 | 0.00 | 0.00 | 35 | 1013.7 |
| 20260510021343 | 65 | 12 | 1.0 | 5.0 | 0.00 | 0.00 | 0.00 | 34 | 1013.4 |
| 20260510020333 | 65 | 349 | 2.0 | 4.0 | 0.00 | 0.00 | 0.00 | 34 | 1013.2 |
| 20260510015327 | 66 | 6 | 0.0 | 4.0 | 0.00 | 0.00 | 0.00 | 35 | 1013.0 |
| 20260510014349 | 67 | 15 | 4.0 | 6.0 | 0.00 | 0.00 | 0.00 | 33 | 1012.8 |
| 20260510013334 | 67 | 23 | 3.0 | 7.0 | 0.00 | 0.00 | 0.00 | 35 | 1012.5 |
| 20260510012326 | 67 | 344 | 1.0 | 6.0 | 0.00 | 0.00 | 0.00 | 35 | 1012.3 |
| 20260510011325 | 68 | 356 | 4.0 | 6.0 | 0.00 | 0.00 | 0.00 | 36 | 1012.1 |
| 20260510010351 | 68 | 19 | 3.0 | 5.0 | 0.00 | 0.00 | 0.00 | 38 | 1012.0 |
| 20260510005332 | 68 | 352 | 3.0 | 7.0 | 0.00 | 0.00 | 0.00 | 39 | 1011.8 |
| 20260510004342 | 69 | 359 | 3.0 | 8.0 | 0.00 | 0.00 | 0.00 | 39 | 1011.7 |
| 20260510003349 | 69 | 13 | 3.0 | 9.0 | 0.00 | 0.00 | 0.00 | 39 | 1011.4 |
| 20260510002329 | 69 | 24 | 2.0 | 8.0 | 0.00 | 0.00 | 0.00 | 40 | 1011.4 |
| 20260510001330 | 69 | 12 | 2.0 | 6.0 | 0.00 | 0.00 | 0.00 | 42 | 1011.4 |
| 20260510000337 | 69 | 19 | 2.0 | 5.0 | 0.00 | 0.00 | 0.00 | 42 | 1011.4 |
| 20260509235332 | 69 | 24 | 3.0 | 7.0 | 0.00 | 0.00 | 0.00 | 43 | 1011.3 |
| 20260509234335 | 69 | 26 | 3.0 | 6.0 | 0.00 | 0.00 | 0.00 | 43 | 1011.4 |
| 20260509233348 | 69 | 18 | 3.0 | 5.0 | 0.00 | 0.00 | 0.00 | 44 | 1011.4 |
| 20260509232356 | 69 | 2 | 2.0 | 4.0 | 0.00 | 0.00 | 0.00 | 44 | 1011.2 |
| 20260509231345 | 69 | 25 | 3.0 | 8.0 | 0.00 | 0.00 | 0.00 | 44 | 1011.2 |
| 20260509230329 | 69 | 346 | 3.0 | 9.0 | 0.00 | 0.00 | 0.00 | 44 | 1011.3 |
| 20260509225342 | 70 | 323 | 4.0 | 8.0 | 0.00 | 0.00 | 0.00 | 43 | 1011.2 |
| 20260509224325 | 71 | 346 | 4.0 | 8.0 | 0.00 | 0.00 | 0.00 | 44 | 1011.1 |
| 20260509223331 | 71 | 1 | 3.0 | 8.0 | 0.00 | 0.00 | 0.00 | 44 | 1011.0 |
| 20260509222337 | 71 | 347 | 6.0 | 11.0 | 0.00 | 0.00 | 0.00 | 43 | 1010.9 |
| 20260509221340 | 71 | 341 | 6.0 | 14.0 | 0.00 | 0.00 | 0.00 | 43 | 1010.8 |
| 20260509220348 | 70 | 348 | 4.0 | 12.0 | 0.00 | 0.00 | 0.00 | 43 | 1010.7 |
| 20260509215326 | 70 | 337 | 4.0 | 8.0 | 0.00 | 0.00 | 0.00 | 44 | 1010.6 |
| 20260509214344 | 70 | 14 | 4.0 | 9.0 | 0.00 | 0.00 | 0.00 | 42 | 1010.5 |
| 20260509213349 | 70 | 354 | 5.0 | 11.0 | 0.00 | 0.00 | 0.00 | 41 | 1010.5 |
| 20260509212353 | 71 | 26 | 6.0 | 11.0 | 0.00 | 0.00 | 0.00 | 40 | 1010.4 |
| 20260509211346 | 71 | 344 | 3.0 | 14.0 | 0.00 | 0.00 | 0.00 | 41 | 1010.3 |
| 20260509210334 | 71 | 356 | 6.0 | 16.0 | 0.00 | 0.00 | 0.00 | 39 | 1010.1 |
| 20260509205326 | 72 | 32 | 4.0 | 13.0 | 0.00 | 0.00 | 0.00 | 37 | 1010.0 |
| 20260509204334 | 72 | 35 | 7.0 | 13.0 | 0.00 | 0.00 | 0.00 | 39 | 1009.8 |
| 20260509203347 | 74 | 15 | 8.0 | 13.0 | 0.00 | 0.00 | 0.00 | 35 | 1009.6 |
| 20260509202332 | 76 | 338 | 6.0 | 12.0 | 0.00 | 0.00 | 0.00 | 33 | 1009.4 |
| 20260509201341 | 76 | 8 | 4.0 | 10.0 | 0.00 | 0.00 | 0.00 | 31 | 1009.2 |
| 20260509200330 | 76 | 1 | 5.0 | 11.0 | 0.00 | 0.00 | 0.00 | 30 | 1009.0 |
| 20260509195341 | 77 | 29 | 3.0 | 9.0 | 0.00 | 0.00 | 0.00 | 29 | 1008.9 |
| 20260509194411 | 77 | 26 | 2.0 | 8.0 | 0.00 | 0.00 | 0.00 | 26 | 1008.8 |
| 20260509193327 | 76 | 15 | 0.0 | 6.0 | 0.00 | 0.00 | 0.00 | 29 | 1008.8 |
| 20260509192334 | 77 | 339 | 2.0 | 7.0 | 0.00 | 0.00 | 0.00 | 28 | 1008.8 |
| 20260509191339 | 77 | 7 | 3.0 | 7.0 | 0.00 | 0.00 | 0.00 | 27 | 1008.8 |
| 20260509190329 | 77 | 355 | 3.0 | 8.0 | 0.00 | 0.00 | 0.00 | 29 | 1008.7 |
| 20260509185323 | 77 | 17 | 6.0 | 10.0 | 0.00 | 0.00 | 0.00 | 27 | 1008.7 |
| 20260509184349 | 76 | 347 | 0.0 | 6.0 | 0.00 | 0.00 | 0.00 | 28 | 1008.7 |
| 20260509183339 | 75 | 330 | 2.0 | 7.0 | 0.00 | 0.00 | 0.00 | 28 | 1008.9 |
| 20260509182324 | 76 | 344 | 3.0 | 7.0 | 0.00 | 0.00 | 0.00 | 28 | 1009.0 |
| 20260509181358 | 75 | 24 | 2.0 | 6.0 | 0.00 | 0.00 | 0.00 | 29 | 1008.8 |
| 20260509180328 | 74 | 23 | 4.0 | 6.0 | 0.00 | 0.00 | 0.00 | 30 | 1008.7 |
| 20260509175356 | 74 | 10 | 2.0 | 6.0 | 0.00 | 0.00 | 0.00 | 30 | 1008.7 |